Orbital Elements at Epoch 2459200.5 (2020-Dec-17.0) TDB
Reference: JPL 16 (heliocentric ecliptic J2000)
Element | Value | Uncertainty (1-sigma) | Units |
e | .2077464873409661 | 4.2048e-08 | |
a | 2.15681556059568 | 9.9262e-09 | au |
q | 1.708744704039591 | 9.2584e-08 | au |
i | 2.902604984120704 | 5.1639e-06 | deg |
node | 136.8732618209899 | 7.9283e-05 | deg |
peri | 231.5897613880066 | 8.0452e-05 | deg |
M | 191.1767816337413 | 1.8426e-05 | deg |
tp | 2459743.059801447831 (2022-Jun-12.55980145) | 6.2175e-05 | TDB |
period | 1156.958920765702 3.17 | 7.9869e-06 2.187e-08 | d yr |
n | .3111605723751572 | 2.1481e-09 | deg/d |
Q | 2.60488641715177 | 1.1988e-08 | au |
|
| | Orbit Determination Parameters
Additional Information
|